Weather History for Marianna, FL

Change the Weather History Date:

Tuesday, February 26, 2013

  Actual Average Record
Temperature  
Mean Temperature 61 °F 57 °F  
Max Temperature 69 °F 69 °F 82 °F (2011)
Min Temperature 52 °F 45 °F 39 °F (2002)
Degree Days  
Heating Degree Days 4    
Month to date heating degree days 255  
Since 1 July heating degree days 981  
Cooling Degree Days 0    
Month to date cooling degree days 6  
Year to date cooling degree days 59  
Growing Degree Days 10 (Base 50)    
Moisture  
Dew Point 55 °F    
Average Humidity 73    
Maximum Humidity 100    
Minimum Humidity 45    
Precipitation  
Precipitation 1.06 in 0.20 in 1.46 in (2003)
Month to date precipitation 12.91 4.59  
Year to date precipitation 13.87 9.63  
Sea Level Pressure  
Sea Level Pressure 29.64 in    
Wind  
Wind Speed 13 mph (SW)    
Max Wind Speed 26 mph    
Max Gust Speed 33 mph    
Visibility 9 miles    
Events Rain    
T = Trace of Precipitation, MM = Missing Value Source: NWS Daily Summary

Daily Weather History Graph

Daily Weather History Graph

Search for Another Location

Airport:

Trip Planner

Search our weather history database for the weather conditions in past years. The results will help you decide how hot, cold, wet, or windy it might be!

Date:

Astronomy

Feb. 26, 2013 Rise Set
Actual Time 6:10 AM CST 5:37 PM CST
Civil Twilight 5:45 AM CST 6:01 PM CST
Nautical Twilight 5:17 AM CST 6:29 PM CST
Astronomical Twilight 4:49 AM CST 6:57 PM CST
Moon 6:44 PM CST (2/26) 6:19 AM CST (2/26)
Length of Visible Light 12h 15m
Length of Day
11h 27m
Full, 99% of the Moon is Illuminated
Feb 26
Full
Mar 4
Last Quarter
Mar 11
New
Mar 19
First Quarter
Mar 27
Full

Hourly Weather History & Observations

Time (CST) Temp. Dew Point Humidity Pressure Visibility Wind Dir Wind Speed Gust Speed Precip Events Conditions
12:11 AM 60.8 °F 60.8 °F 100% 29.63 in 6.0 mi ESE 10.4 mph 17.3 mph 0.04 in Rain Rain
12:22 AM 60.8 °F 60.8 °F 100% 29.63 in 9.0 mi SE 8.1 mph 17.3 mph 0.06 in Rain Light Rain
12:53 AM 62.1 °F 61.0 °F 96% 29.61 in 6.0 mi ESE 8.1 mph - 0.15 in Rain Rain
1:53 AM 64.0 °F 63.0 °F 96% 29.54 in 7.0 mi SE 8.1 mph 16.1 mph 0.19 in Rain Rain
2:37 AM 66.2 °F 64.4 °F 94% 29.54 in 2.0 mi SSE 8.1 mph - 0.21 in Rain Heavy Rain
2:46 AM 66.2 °F 64.4 °F 94% 29.54 in 1.8 mi Variable 4.6 mph - 0.36 in Rain Heavy Rain
2:53 AM 66.0 °F 64.9 °F 96% 29.54 in 1.2 mi SSW 9.2 mph - 0.51 in Rain Heavy Rain
3:11 AM 66.2 °F 66.2 °F 100% 29.51 in 3.0 mi South 8.1 mph 20.7 mph 0.21 in Rain Light Rain
3:22 AM 66.2 °F 64.4 °F 94% 29.52 in 10.0 mi South 9.2 mph 20.7 mph 0.21 in Rain Light Rain
3:51 AM 66.2 °F 66.2 °F 100% 29.52 in 10.0 mi Calm Calm - 0.21 in Rain Light Rain
3:53 AM 66.9 °F 66.0 °F 97% 29.52 in 10.0 mi South 4.6 mph - 0.21 in Rain Light Rain
3:57 AM 66.2 °F 64.4 °F 94% 29.52 in 10.0 mi South 4.6 mph - 0.00 in Rain Light Rain
4:08 AM 66.2 °F 64.4 °F 94% 29.54 in 5.0 mi West 8.1 mph - 0.02 in Rain Rain
4:48 AM 66.2 °F 66.2 °F 100% 29.52 in 10.0 mi SW 8.1 mph - 0.02 in   Mostly Cloudy
4:53 AM 66.9 °F 66.0 °F 97% 29.52 in 10.0 mi SW 6.9 mph - 0.02 in   Mostly Cloudy
5:16 AM 68.0 °F 66.2 °F 94% 29.56 in 10.0 mi WSW 17.3 mph 23.0 mph N/A   Overcast
5:30 AM 66.2 °F 62.6 °F 88% 29.56 in 10.0 mi WSW 16.1 mph 29.9 mph N/A   Overcast
5:53 AM 64.0 °F 61.0 °F 90% 29.57 in 10.0 mi WSW 13.8 mph - N/A   Mostly Cloudy
6:53 AM 61.0 °F 55.0 °F 81% 29.60 in 10.0 mi SW 12.7 mph - N/A   Scattered Clouds
7:53 AM 61.0 °F 52.0 °F 72% 29.65 in 10.0 mi SW 13.8 mph 19.6 mph N/A   Clear
8:53 AM 63.0 °F 50.0 °F 63% 29.67 in 10.0 mi WSW 15.0 mph 21.9 mph N/A   Clear
9:53 AM 62.1 °F 48.0 °F 60% 29.68 in 10.0 mi WSW 20.7 mph 26.5 mph N/A   Clear
10:53 AM 64.0 °F 48.0 °F 56% 29.70 in 10.0 mi SW 18.4 mph 29.9 mph N/A   Clear
11:53 AM 66.0 °F 46.9 °F 50% 29.69 in 10.0 mi SW 20.7 mph 27.6 mph N/A   Clear
12:53 PM 68.0 °F 46.9 °F 47% 29.68 in 10.0 mi SW 17.3 mph 21.9 mph N/A   Clear
1:53 PM 66.0 °F 46.0 °F 48% 29.68 in 10.0 mi SW 19.6 mph 28.8 mph N/A   Clear
2:53 PM 64.9 °F 44.1 °F 47% 29.69 in 10.0 mi SW 18.4 mph 27.6 mph N/A   Clear
3:53 PM 61.0 °F 44.1 °F 54% 29.69 in 10.0 mi SW 18.4 mph - N/A   Clear
4:53 PM 57.9 °F 45.0 °F 62% 29.72 in 10.0 mi SW 12.7 mph 24.2 mph N/A   Clear
5:53 PM 55.9 °F 45.0 °F 67% 29.75 in 10.0 mi WSW 15.0 mph 25.3 mph N/A   Clear
6:53 PM 55.0 °F 46.0 °F 72% 29.79 in 10.0 mi WSW 10.4 mph - N/A   Clear
7:53 PM 55.0 °F 46.0 °F 72% 29.83 in 10.0 mi WSW 11.5 mph - N/A   Clear
8:53 PM 54.0 °F 45.0 °F 72% 29.85 in 10.0 mi WSW 9.2 mph - N/A   Clear
9:53 PM 53.1 °F 45.0 °F 74% 29.87 in 10.0 mi West 6.9 mph - N/A   Clear
10:53 PM 52.0 °F 45.0 °F 77% 29.88 in 10.0 mi West 5.8 mph - N/A   Clear
11:53 PM 52.0 °F 44.1 °F 74% 29.88 in 10.0 mi West 6.9 mph - N/A   Clear